Regional Weather Roundup
Issued by NWS

Home | Current Version | Previous Version | Text Only | Print | Product List | Glossary Off
Versions: 1 2 3 4 5 6 7 8 9 10 11 12 13 14 15 16 17 18 19 20 21 22 23 24 25 26 27 28 29 30 31 32 33 34 35 36 37 38 39 40 41 42 43 44 45 46 47 48 49 50

000
ASUS43 KMPX 250601
RWRMN
WEATHER ROUNDUP FOR MINNESOTA
NATIONAL WEATHER SERVICE TWIN CITIES/CHANHASSEN MN
100 AM CDT MON SEP 25 2017


NOTE: "FAIR" INDICATES FEW OR NO CLOUDS BELOW 12,000 FEET WITH NO
SIGNIFICANT WEATHER AND/OR OBSTRUCTIONS TO VISIBILITY. N/A MEANS
CURRENT SKY AND/OR WEATHER CONDITIONS ARE NOT AVAILABLE.

MNZ060>063-068>070-250700-
   Twin Cities Metro

CITY           SKY/WX    TMP DP  RH WIND       PRES   REMARKS
TWIN CITIES    CLOUDY    70  67  90 W8        29.94R
6HR MIN TEMP:  70; 6HR MAX TEMP:  86; 6HR PCP: TRACE;

ST PAUL        CLOUDY    70  67  90 SW3       29.94R
CRYSTAL        MOCLDY    67  62  84 W8        29.93R
BLAINE         MOCLDY    70  68  94 W3        29.94R
LAKEVILLE      CLOUDY    66  66 100 CALM      29.94S
EDEN PRAIRIE   MOCLDY    69  64  84 W10       29.94R
6HR MIN TEMP:  68; 6HR MAX TEMP:  79;

SOUTH ST PAUL  MOCLDY    70  66  86 CALM      29.94R
LAKE ELMO      FAIR      70  66  88 CALM      29.96R
$$
MNZ001>005-007-008-013>017-022>024-027-028-250700-
   Northwest Minnesota

CITY           SKY/WX    TMP DP  RH WIND       PRES   REMARKS
BEMIDJI        MOCLDY    49  48  97 NW10      29.97R
HALLOCK        CLOUDY    50  48  93 NW9       30.01S
ROSEAU         CLOUDY    50  45  81 W8        29.97S HAZE
WARROAD        CLOUDY    48  45  87 NW9       29.96S FOG
THIEF RVR FALL CLOUDY    48  46  93 NW10      30.01R
CROOKSTON      CLOUDY    48  48 100 N12       30.03R
FOSSTON        CLOUDY    46  46 100 NW9       30.00S FOG
DETROIT LAKES  CLOUDY    50  46  87 NW10      30.02R FOG
MOORHEAD       CLOUDY    50  48  93 NW6       30.04R
PARK RAPIDS    MOCLDY    51  48  89 NW9       29.98R
MAHNOMEN       CLOUDY    49  48  98 NW8       30.00R
$$
MNZ006-009>011-018-025>026-250700-
   North Central Minnesota

CITY           SKY/WX    TMP DP  RH WIND       PRES   REMARKS
BAUDETTE       CLOUDY    50  50 100 W10       29.94R
FLAG ISLAND    CLOUDY    50  48  93 NW14      29.92R
INTL FALLS     CLOUDY    54  52  93 W8        29.90R
6HR MIN TEMP:  54; 6HR MAX TEMP:  68; 6HR PCP:  0.04;

WASKISH        CLOUDY    52  50  93 W9G18     29.95S
BIG FORK       MOCLDY    54  52  94 CALM      29.94R
LONGVILLE      CLOUDY    54  52  94 W3        29.95S FOG
GRAND RAPIDS   CLOUDY    57  55  93 NW10      29.94S
CRANE LAKE     CLOUDY    61  59  94 W5        29.89R FOG
ORR            CLOUDY    57  55  94 NW8       29.88R FOG
WALKER         CLOUDY    51  49  96 NW7       29.97S
$$
MNZ012-019>021-037-250700-
   Northeast Minnesota

CITY           SKY/WX    TMP DP  RH WIND       PRES   REMARKS
DULUTH         CLOUDY    65  65 100 W7        29.89R
6HR MIN TEMP:  64; 6HR MAX TEMP:  68; 6HR PCP:  0.33;

ELY            CLOUDY    64  64 100 SW3       29.87F
HIBBING        CLOUDY    60  59  96 W7        29.90R
EVELETH        LGT RAIN  63  62  97 W10G16    29.90R
DULUTH HARBOR  CLOUDY    66  64  94 SW10      29.89R
SILVER BAY     CLEAR     64  64 100 CALM      29.85S FOG
GRAND MARAIS     N/A     63  62  97 SW8       29.84S
$$
MNZ029>031-032-039>041-046>048-054>057-064-250700-
   West Central Minnesota

CITY           SKY/WX    TMP DP  RH WIND       PRES   REMARKS
FERGUS FALLS   MOCLDY    50  50 100 N9G17     30.03R
WHEATON        CLOUDY    52  48  87 NW12      30.04F
MORRIS         CLOUDY    54  52  94 N12       30.00S FOG
ALEXANDRIA     CLOUDY    52  50  93 NW13      30.00S
ELBOW LAKE     CLOUDY    51  50  99 W13       30.02S
WADENA         PTCLDY    50  50 100 NW7       29.99S
GLENWOOD       CLOUDY    54  52  94 NW13      30.00R
APPLETON       CLOUDY    55  50  82 N9        30.01S
BENSON         CLOUDY    54  50  87 N14       30.01S
ORTONVILLE     CLOUDY    52  48  87 N8        30.01F
MADISON        DRIZZLE   55  55 100 NW9       30.02R
WILLMAR        MOCLDY    55  54  94 NW9       30.00R
$$
MNZ033>034-036-042>043-049>051-058-059-250700-
   Central Minnesota

CITY           SKY/WX    TMP DP  RH WIND       PRES   REMARKS
ST CLOUD       LGT RAIN  59  58  96 W8        29.96R
6HR MIN TEMP:  59; 6HR MAX TEMP:  70; 6HR PCP:  0.02;

SAUK CENTRE    CLOUDY    54  51  89 NW9       29.99R
PAYNESVILLE    CLOUDY    55  54  94 W6        29.99R
AITKIN         CLOUDY    57  54  88 W7        29.94R
PINE RIVER     CLOUDY    52  48  87 NW6       29.99S
BRAINERD       MOCLDY    56  52  86 NW9       29.96R
STAPLES        CLOUDY    52  50  93 NW9       29.97F
LITTLE FALLS   CLOUDY    55  50  82 NW7       29.97S
LITCHFIELD     LGT RAIN  57  57 100 NW8       29.97F
BUFFALO        CLOUDY    62  59  88 W8        29.97R
MAPLE LAKE     LGT RAIN  61  60  95 W6        29.97S
HUTCHINSON     RAIN      59  58  97 W3        29.98F
$$
MNZ037-044-045-052-053-250700-
   East Central Minnesota

CITY           SKY/WX    TMP DP  RH WIND       PRES   REMARKS
PRINCETON      CLOUDY    63  61  94 W8        29.95R
MORA           CLOUDY    63  63 100 SW5       29.94R
RUSH CITY      CLOUDY    67  65  94 CALM      29.92S
MOOSE LAKE     CLOUDY    64  63  94 CALM      29.89R
HINCKLEY       CLOUDY    66  66 100 SW3       29.92F
CLOQUET        MOCLDY    66  63  88 W3        29.90S
MCGREGOR       CLOUDY    61  59  94 NW9       29.92S
$$
MNZ071>073-080-081-089-090-097-098-250700-
   Southwest Minnesota

CITY           SKY/WX    TMP DP  RH WIND       PRES   REMARKS
MONTEVIDEO     CLOUDY    55  52  88 N7        30.01R
GRANITE FALLS  CLOUDY    57  53  87 NW9G16    30.02R
CANBY          CLOUDY    54  51  89 W8        30.03S
MARSHALL       CLOUDY    54  52  93 N12       30.01R
REDWOOD FALLS  LGT RAIN  57  53  86 N7        29.98F
OLIVIA         CLOUDY    55  54  94 NW8       29.98S
PIPESTONE      RAIN      55  54  94 NE7       30.00S
WINDOM         LGT RAIN  57  55  94 VRB6      29.97F
WORTHINGTON    CLOUDY    58  57  97 N7        29.97S
JACKSON        LGT RAIN  59  55  88 CALM      29.98F
TRACY          CLOUDY    56  55  98 NW9       30.00R
SLAYTON        CLOUDY    56  50  80 N9        30.00R
$$
MNZ065>067-074>077-082>085-091>093-250700-
   South Central Minnesota

CITY           SKY/WX    TMP DP  RH WIND       PRES   REMARKS
MANKATO        CLOUDY    63  60  90 NW7       29.96S
NEW ULM        DRIZZLE   59  57  94 NW9       29.97S
ST JAMES       HVY RAIN  61  57  88 NW6       29.97S
FAIRMONT       CLOUDY    62  59  90 NW12      29.98R
FARIBAULT      MOCLDY    66  66 100 CALM      29.95S
OWATONNA       LGT RAIN  68  66  94 NW3       29.94F
WASECA         RAIN      64  63  94 W6        29.96S
ALBERT LEA     CLOUDY    72  70  94 CALM      29.95R
$$
MNZ078>079-086>088-094>096-250700-
   Southeast Minnesota

CITY           SKY/WX    TMP DP  RH WIND       PRES   REMARKS
ROCHESTER      CLEAR     66  62  87 SW6       29.96S
6HR MIN TEMP:  66; 6HR MAX TEMP:  80;

RED WING       PTCLDY    73  63  68 NW3       29.93R
STANTON        CLOUDY    69  66  89 CALM      29.93F
DODGE CENTER   PTCLDY    68  63  83 CALM      29.95S
WINONA         CLEAR     75  63  64 W6        29.94R
AUSTIN         PTCLDY    66  63  88 CALM      29.94F
PRESTON        CLEAR     69  61  74 SW5       29.97S
$$
ABBREVIATIONS USED IN REMARKS
   TC - TEMPERATURES IN CELSIUS
  WCI - WIND CHILL INDEX
   HX - HEAT INDEX
  VSB - VISIBILITY
$$




USA.gov is the U.S. government's official web portal to all federal, state and local government web resources and services.